www.pogodaiklimat.ru

Погода и климат >> Архив погоды >> Россия >> Приморский край >> Терней


ПОГОДА в Тернее

  • Прогноз погоды в Тернее
  • Монитор погоды в Тернее
  • Климат города

АРХИВ ПОГОДЫ в Тернее

Время (UTC), дата Ветер
(напр.,м/с)
 
Видим.   Явления Облачность Т
(С)
Тd
(С)
f
(%)
Тe
(С)
Тes
(С)
Комфортность P
(гПа)
Po
(гПа)
Тmin
(С)
Tmax
(С)
R
(мм)
R24
(мм)
S
(см)
00 18.05 СЗ 1 50 км 10/10 600 м
[Sc]
+10.7 +3.0 59 +11 +11 1014.5 1007.0
03 18.05 ЮВ 2 50 км 10/0
[Ac und]
+13.6 +0.7 41 +13 +19 1013.3 1005.9
06 18.05 ЮВ 3 50 км 9/0
[Ac As]
+13.5 -0.9 37 +13 +16 1012.3 1004.9
09 18.05 ЮВ 3 50 км 8/8 600 м
[Sc]
+10.5 -0.7 46 +9 +9 1012.8 1005.4 +15.5
12 18.05 З 2 20 км 3/3 600 м
[Sc]
+7.6 -1.5 52 +6 +6 1013.7 1006.1
15 18.05 СЗ 2 20 км ясно +6.0 -2.5 54 +4 +4 1013.2 1005.6
18 18.05 СЗ 3 20 км ясно +5.4 -3.8 51 +3 +3 1013.2 1005.6
21 18.05 СЗ 2 50 км 3/0
[Ac lent]
+7.2 -2.1 52 +6 +7 1014.5 1006.9 +3.9
00 19.05 ЮВ 4 50 км 1/0
[Ac lent]
+15.4 -2.6 29 +15 +22 1014.8 1007.4
03 19.05 ЮВ 4 50 км 1/0
[Cs]
+16.0 -5.4 23 +15 +28 опасность
простуды
1016.1 1008.7
06 19.05 ЮВ 4 50 км 3/0
[Ac trans]
+17.9 +0.9 32 +18 +24 1016.4 1009.1
09 19.05 В 1 50 км 4/3 600 м
[Sc Cs]
+16.6 +0.3 33 +18 +19 1016.3 1008.9 +18.0
12 19.05 ЮЗ 2 20 км 3/3 600 м
[Sc]
+12.3 +1.1 46 +12 +12 1017.2 1009.7
15 19.05 СЗ 4 20 км ясно +10.1 +3.8 65 +8 +8 1017.3 1009.8
18 19.05 СЗ 4 20 км ясно +11.5 +3.7 59 +10 +10 1017.7 1010.2
21 19.05 штиль 0 50 км 3/0
[Ci fib]
+10.0 +4.2 67 +10 +12 1020.1 1012.5 +7.7
00 20.05 ЮВ 4 50 км ясно +15.4 +3.6 45 +15 +23 1020.2 1012.8
03 20.05 ЮВ 4 50 км 3/1 1000 м
[Cu med, cong Cc]
+14.5 +2.7 45 +13 +24 опасность
простуды
1020.1 1012.6
06 20.05 ЮВ 3
{10}
50 км 8/6 600 м
[Sc diur, vesp Ac lent]
+12.9 +2.7 50 +12 +14 1020.0 1012.5
09 20.05 В 2 50 км 3/0
[Ac trans]
+9.0 +3.2 67 +8 +9 1019.6 1012.0 +15.7
12 20.05 З 2 20 км ясно +6.9 +2.2 72 +5 +5 1019.4 1011.7
15 20.05 З 2 20 км ясно +6.1 +2.3 77 +4 +4 1018.2 1010.6
18 20.05 СЗ 2 20 км ясно +6.1 +3.0 80 +4 +4 1017.6 1010.0
21 20.05 СЗ 4 50 км 8/0
[Ci]
+8.8 +4.0 72 +6 +7 1016.9 1009.3 +5.4
00 21.05 СЗ 2 50 км 8/0
[Ac trans Cs]
+22.3 +5.3 33 +23 +31 комфорт 1015.5 1008.3
03 21.05 З 4 50 км 9/8 600 м
[Sc Ac trans]
+29.6 +2.5 18 +27 +29 жарко 1013.2 1006.2
06 21.05 СЗ 4
{12}
50 км 8/8 600 м
[Cu hum]
+29.5 -0.4 14 +27 +28 жарко 1011.4 1004.4
09 21.05 СВ 2
{12}
50 км 10/8 600 м
[Sc diur, vesp As op]
+21.4 +3.6 31 +22 +22 комфорт 1013.4 1006.2 +31.6
12 21.05 ЮВ 2
{11}
20 км {ливн. осадки} 10/10 600 м
[Sc]
+15.5 +9.1 66 +15 +15 1016.5 1009.1
15 21.05 Ю 1 20 км 9/9 600 м
[Sc]
+10.8 +4.6 66 +11 +11 1018.1 1010.5
18 21.05 СЗ 1 20 км ясно +7.1 +4.0 81 +6 +6 1017.8 1010.2
21 21.05 штиль 0 50 км ясно +9.5 +5.4 76 +9 +11 1017.4 1009.9 +6.7 0.0
00 22.05 ЮВ 2 50 км ясно +13.0 +5.0 58 +12 +24 опасность
простуды
1016.1 1008.7
03 22.05 В 3 50 км ясно +13.4 +6.1 61 +12 +28 опасность
простуды
1013.6 1006.2
06 22.05 СВ 2 50 км ясно +14.2 +7.0 62 +14 +25 опасность
простуды
1011.0 1003.6
09 22.05 СВ 2 50 км ясно +9.2 +6.0 80 +8 +9 1009.4 1001.9 +14.2
12 22.05 В 2 20 км ясно +8.4 +4.1 74 +7 +7 1009.1 1001.5
15 22.05 ЮЗ 1 20 км ясно +6.3 +3.7 83 +5 +5 1008.0 1000.5
18 22.05 штиль 0 20 км 8/0
[Ci sp]
+5.7 +3.7 87 +5 +5 1006.9 999.3
21 22.05 штиль 0 50 км 10/3 600 м
[Sc Ac lent Ci ing]
+6.6 +4.3 85 +6 +6 1005.3 997.8 +4.8
00 23.05 В 2 50 км 10/8 600 м
[Sc As trans]
+9.6 +5.9 78 +8 +9 1003.0 995.6
03 23.05 В 1 10 км слабый ливневой дождь 10/10 600 м
[Cb cap]
+8.3 +6.3 87 +8 +8 1001.3 993.8
06 23.05 В 1 10 км слабый ливневой дождь 10/10 300 м
[Cb cap]
+7.4 +6.2 92 +6 +6 999.3 991.9
09 23.05 З 4 20 км в посл. час ливневой дождь 9/9 600 м
[Cb cap]
+9.1 +7.4 89 +6 +6 999.8 992.4 +9.7 7
12 23.05 З 4 20 км {ливн. осадки} ясно +8.0 +3.1 71 +5 +5 1000.9 993.4
15 23.05 штиль 0 20 км ясно +5.3 +2.8 84 +4 +4 1002.5 995.0
18 23.05 СЗ 2 20 км ясно +3.2 +1.8 91 0 0 1003.3 995.7
21 23.05 СЗ 2 50 км 3/0
[Ac trans]
+4.0 +2.3 89 +1 +3 1002.4 994.9 +1.9
00 24.05 штиль 0 50 км 10/0
[Ac As]
+9.0 +4.3 72 +8 +13 1001.9 994.5
03 24.05 В 4
{10}
50 км 10/3 300 м
[St Ac trans Ci fib]
+10.2 +6.1 76 +8 +12 1000.1 992.7
06 24.05 СВ 1 10 км слабый ливневой дождь 10/10 300 м
[Cb cap]
+9.4 +7.4 87 +9 +9 998.5 991.1
09 24.05 штиль 0 10 км слабый ливневой дождь 10/10 300 м
[Cb cap]
+8.2 +6.3 88 +7 +7 998.5 991.1 +12.5 1
12 24.05 З 1 20 км {ливн. осадки} 5/3 600 м
[Sc Ac trans]
+7.5 +6.3 92 +7 +7 998.3 990.9
15 24.05 СЗ 2 1000 м дымка 4/4 300 м
[St]
+6.0 +5.1 94 +3 +3 997.9 990.4
18 24.05 СЗ 2 20 км 1/1 300 м
[St]
+5.3 +4.3 93 +3 +3 998.4 990.9
21 24.05 СЗ 2 50 км 9/0
[As trans]
+8.4 +6.3 87 +6 +7 999.4 992.0 +4.9 0.0

 

Местоположение метеостанции Терней (Приморский край, Россия): широта 45.00 долгота 136.60 высота над уровнем моря 62 м.

В архиве по умолчанию представлена погода в Тернее за последнюю неделю. Архивные данные за месяц целиком и за предыдущие месяцы, начиная с января 2011 года, Вы можете получить, выбрав интересующий диапазон дат из раскрывающегося списка и нажав кнопку "Ввод!".


*Определитесь, кто Вы:
робот инопланетянин человек

Внимание! Время в таблицах - всемирное. Для получения местного времени необходимо прибавить поправку, которая в Тернее равна 10 ч.

Смотрите также архив погоды в соседних городах и на ближайших метеорологических станциях:

Погода в Малой Кеме (Приморский край, Россия) (59 км)
Погода в Рудной Пристани (Приморский край, Россия) (94 км)
Погода в Мельничном (Приморский край, Россия) (100 км)
Погода в Богополе (Приморский край, Россия) (126 км)
Погода в Кавалерово (Приморский край, Россия) (152 км)
Погода в Глубинном (Приморский край, Россия) (156 км)
Погода в Ольге (Приморский край, Россия) (173 км)
Погода в Дальнегорске (Приморский край, Россия) (181 км)
Погода в Малиново (Приморский край, Россия) (194 км)
Погода в Красном Яре (Приморский край, Россия) (198 км)

Пояснения к столбцам:

Ветер - указаны скорость ветра в м/с - средняя за 10 мин, порывы в срок и между сроками (в фигурных скобках) и направление, откуда дует ветер: С - северный, СВ - северо-восточный, В - восточный, ЮВ - юго-восточный, Ю - южный, ЮЗ - юго-западный, З - западный, СЗ - северо-западный.
Видимость - горизонтальная дальность видимости в метрах или километрах. При видимости от 1 до 10 км при отсутствии осадков обычно наблюдается дымка, при ухудшении видимости до 1 км и менее - туман. В сухую погоду видимость может ухудшаться дымом, пылью или мглою.
Явления - указаны атмосферные явления, наблюдавшиеся в срок или в последний час перед сроком; фигурными скобками обозначены явления, наблюдавшиеся между сроками (за 1-3 часа до срока); квадратными скобками обозначены град или гололедные отложения с указанием их диаметра в мм.
Облачность - указаны через наклонную черту общая и нижняя облачность в баллах и высота нижней границы облаков в метрах; квадратными скобками обозначены формы облаков: Ci - перистые, Cs - перисто-слоистые, Cc - перисто-кучевые, Ac - высококучевые, As - высокослоистые, Sc - слоисто-кучевые, Ns - слоисто-дождевые, Cu - кучевые, Cb - кучево-дождевые. Подробнее классификацию облаков см. в Атласе облаков (PDF).
T - Температура воздуха - температура, измеренная на высоте 2 м над землей.
Td - Температура точки росы - температура, при понижении до которой содержащийся в воздухе водяной пар достигнет насыщения.
f - Относительная влажность воздуха - влажноcть воздуха, измеренная на высоте 2 м над землей.
Te - Эффективная температура - температура, которую ощущает одетый по сезону человек в тени. Характеристика душности погоды. При расчете учитывается влияние влажности воздуха и скорости ветра на теплоощущения человека.
Tes - Эффективная температура на солнце - температура, которую ощущает человек, с поправкой на солнечный нагрев. Характеристика знойности погоды. Зависит от высоты солнца над горизонтом, облачности и скорости ветра. Ночью, в пасмурную погоду, а также при ветре 12 м/с и более поправка равна нулю.
P - Атмосферное давление - приведенное к уровню моря атмосферное давление.
Po - Атмосферное давление - измеренное на уровне метеостанции атмосферное давление.
Tmin - Минимальная температура - минимум температуры воздуха на высоте 2 м над землей.
Tmax - Максимальная температура - максимум температуры воздуха на высоте 2 м над землей.
R - Количество осадков - Количество выпавших осадков за период времени, мм. При наведении курсора мыши на число - период времени, за который выпало указанное количество осадков.
R24 - Количество осадков - Количество выпавших осадков за 24 часа, мм.
S - Снежный покров - Высота снежного покрова, см. При наведении курсора мыши на число - состояние снежного покрова и степень покрытия местности в баллах.